Home   Weather   Bordeaux   Past weeks

Flag for France Past Weather in Bordeaux, Aquitaine, France — Yesterday and Last 2 Weeks

Now
32 °F

Clear.


Feels Like: 32 °F
Forecast: 27 / 45 °F
Wind: No wind

Location: Bordeaux / Merignac

Current Time: Jan 22, 2017 at 11:28:35 pm

Latest Report: Jan 22, 2017 at 10:30 pm


Visibility: 5 mi

Pressure: 30.18 "Hg

Humidity: 80%

Dew Point: 27 °F

Location of BordeauxLocation

Past Weather in Bordeaux — Graph

°F

Bordeaux Temperature Yesterday

Maximum temperature yesterday: 54 °F (at 4:00 pm)
Minimum temperature yesterday: 32 °F (at 4:00 am)
Average temperature yesterday: 39 °F

High & Low Weather Summary for the Past Weeks

 TemperatureHumidityPressure
High55 °F (Jan 11, 2:00 pm)100% (Jan 8, 11:30 pm)30.57 "Hg (Jan 8, 11:30 pm)
Low18 °F (Jan 19, 6:30 am)45% (Jan 17, 2:30 pm)29.89 "Hg (Jan 12, 6:00 pm)
Average40 °F80%30.26 "Hg
* Reported Jan 7 10:00 pm — Jan 22 10:00 pm, Bordeaux, Weather by CustomWeather, © 2017

Note: Actual official high and low records may vary slightly from our data, if they occured in-between our weather recording intervals... More about our weather records

Advertising

Bordeaux Weather History for the Previous 24 Hours

Scroll right to see more
 ConditionsComfort  
Time TempWeatherWind HumidityBarometerVisibility
10:00 pm
Sun, Jan 22
32 °FClear.No wind80%30.18 "Hg5 mi
9:30 pm32 °FClear.2 mph80%30.18 "Hg5 mi
9:00 pm36 °FClear.2 mph75%30.18 "Hg5 mi
8:30 pm36 °FClear.3 mph70%30.18 "Hg10 mi
8:00 pm37 °FPassing clouds.5 mph65%30.18 "HgN/A
7:30 pm37 °FClear.5 mph65%30.18 "Hg10 mi
7:00 pm37 °FClear.2 mph65%30.15 "Hg10 mi
6:30 pm39 °FClear.3 mph61%30.15 "Hg10 mi
6:00 pm39 °FClear.5 mph61%30.15 "Hg10 mi
5:30 pm41 °FScattered clouds.5 mph57%30.15 "HgN/A
5:00 pm41 °FPassing clouds.6 mph57%30.15 "HgN/A
4:30 pm41 °FPassing clouds.5 mph57%30.15 "HgN/A
4:00 pm41 °FPassing clouds.6 mph57%30.15 "HgN/A
3:30 pm41 °FPassing clouds.8 mph61%30.12 "HgN/A
3:00 pm43 °FSunny.3 mph57%30.12 "Hg10 mi
2:30 pm41 °FPassing clouds.5 mph61%30.12 "HgN/A
2:00 pm41 °FSunny.7 mph61%30.12 "Hg10 mi
1:30 pm41 °FSunny.No wind57%30.15 "Hg10 mi
1:00 pm41 °FPartly sunny.2 mph57%30.18 "HgN/A
12:30 pm39 °FSunny.5 mph65%30.18 "Hg10 mi
12:00 pm39 °FBroken clouds.5 mph65%30.18 "HgN/A
11:30 am37 °FSunny.3 mph70%30.15 "Hg10 mi
11:00 am36 °FPassing clouds.5 mph75%30.15 "HgN/A
10:30 am32 °FSunny.3 mph87%30.15 "Hg10 mi
10:00 am30 °FClear.3 mph93%30.15 "Hg5 mi
9:30 am28 °FSunny.No wind93%30.15 "Hg10 mi
9:00 am30 °FClear.2 mph86%30.15 "Hg5 mi
8:30 am28 °FClear.3 mph93%30.15 "Hg5 mi
8:00 am28 °FClear.No wind93%30.15 "Hg5 mi
7:30 am27 °FClear.No wind93%30.15 "Hg4 mi
7:00 am28 °FClear.2 mph86%30.15 "Hg5 mi
6:30 am28 °FClear.No wind93%30.15 "Hg6 mi
6:00 am28 °FClear.6 mph93%30.15 "Hg6 mi
5:30 am28 °FClear.3 mph86%30.15 "Hg4 mi
5:00 am28 °FClear.2 mph93%30.15 "Hg4 mi
4:30 am28 °FClear.1 mph93%30.15 "Hg4 mi
4:00 am28 °FClear.No wind93%30.15 "Hg4 mi
3:30 am28 °FClear.No wind93%30.15 "Hg4 mi
3:00 am30 °FClear.1 mph86%30.15 "Hg4 mi
2:30 am30 °FClear.2 mph86%30.15 "Hg4 mi
2:00 am30 °FClear.3 mph86%30.18 "Hg4 mi
1:30 am30 °FClear.2 mph93%30.18 "Hg4 mi
1:00 am30 °FClear.1 mph93%30.18 "Hg4 mi
12:30 am30 °FClear.1 mph93%30.18 "Hg4 mi
12:00 am32 °FClear.2 mph93%30.18 "Hg6 mi
11:30 pm
Sat, Jan 21
34 °FClear.1 mph87%30.18 "Hg10 mi
11:00 pm32 °FClear.3 mph87%30.18 "Hg6 mi
Weather by CustomWeather, © 2017

See weather overviewHow to use our weather pages